星链-32514 (STARLINK-32514)

导读

STARLINK-32514是美国SpaceX公司星链(Starlink)星座的成员卫星,于2024年11月14日发射升空。作为低轨宽带通信卫星,它采用平板设计与霍尔推进技术,搭载Ku/Ka波段通信载荷,依托光学星间链路和相控阵技术,服务全球覆盖的卫星互联网接入,设计使用寿命约5-7年,退役后会主动离轨坠入大气层销毁。

Basic Information
目录编号:
61965
目录名称:
STARLINK-32514
国际标识:
2024-210G
轨道中心:
EARTH
卫星名称:
星链-32514
卫星全名:
星链-32514 (STARLINK-32514)
卫星状态:
在轨 (已飞行666 天)
发射日期:
2024-11-14 UTC
国别 :
美国 (US)
星等 :
--
This satellite is enrolled in the Space Conjunction Data Service (SCDS) and the current flight risk assessment level is: High Risk
Orbit Information
数据来源 国际轨道数据
星历时间: 2026-09-09T13:52:08+0800
2天前
查看轨道信息
半长轴: 6861.149km
偏心率: 0.0001534
轨道倾角: 42.999°
近地点辐角 271.791°
升交点赤经 216.169°
平近点角 88.276°
近地点: 481.959km
远地点: 484.065km
周期: 94.266分钟
每日圈数: 15.275924
Detailed Information
固有亮度:
5
最大亮度:
2.5
卫星平台:
Starlink V1.0
覆盖范围:
全球
运营商:
太空探索技术公司
运营商所在国:
美国
制造商(研发单位):
太空探索技术公司
制造商所在国:
美国
使用方式:
暂无
Satellite Introduction
Starlink 计划是 SpaceX 推出的全球卫星互联网项目,通过发射低轨道卫星,为全球尤其是偏远地区提供高速、低延迟的互联网服务。自 2019 年起,Starlink 已部署数千颗卫星,旨在缩小全球数字鸿沟,推动互联网普及。该项目还为军事、航空等行业提供通信支持,带来广泛经济效益。
2D Orbit Map
3D Orbit Map
Orbit Altitude Analysis Chart
Orbit Inclination Analysis Chart
Orbit Comprehensive Analysis Chart
View Comprehensive Chart
Conjunction Data List
Event ID Objects TCA Miss Dist (km) Collision Risk Probability Collision Risk Index (CRI) Action
CDM_260911-055605-874406-196521
2026-09-11T
05:56:47+0000
0.346 km
远距离
3.041034E-4 高风险 0.85
CDM_260911-194505-547706-196522
2026-09-11T
19:45:37+0000
0.549 km
远距离
1.292225E-4 高风险 0.77
CDM_260913-011805-778306-196521
2026-09-13T
01:18:51+0000
0.432 km
远距离
9.965828E-5 中风险 0.75
CDM_260913-060806-196506-783121
2026-09-13T
06:08:58+0000
0.665 km
远距离
6.401632E-5 中风险 0.71
CDM_260913-043406-196506-783121
2026-09-13T
04:34:49+0000
0.881 km
远距离
2.624694E-5 中风险 0.63
CDM_260913-074306-196506-783121
2026-09-13T
07:43:07+0000
0.957 km
远距离
1.985996E-5 中风险 0.61
CDM_260913-053005-792006-196521
2026-09-13T
05:30:34+0000
1.050 km
极远距离
1.753963E-5 中风险 0.6
CDM_260912-161005-792006-196521
2026-09-12T
16:10:15+0000
1.173 km
极远距离
1.1911E-5 中风险 0.57
CDM_260911-191705-874406-196521
2026-09-11T
19:17:05+0000
1.143 km
极远距离
1.09587E-5 中风险 0.56
CDM_260913-053406-196506-453221
OBJECT E (64532)
2026-09-13T
05:34:59+0000
1.358 km
极远距离
9.181906E-6 低风险 0.54
Miss Distance Evolution Trend with All Objects
Collision Probability Evolution Trend with All Objects